Location: McFarlands Corners
(41.4117°N, 81.3382°W)
Time: 16:53:26
(UTC+00:00)

SR - Pass Details

Date: 21 February 2026
Orbit: 572 x 849 km, 66.7° (Epoch: 12 March)

Event Time Altitude Azimuth Distance (km) Brightness Sun altitude
Rises 18:41:58 0° 321° (NW) 3,133 ? 36.2°
Reaches altitude 10° 18:44:25 10° 313° (NW) 2,253 ? 36.1°
Maximum altitude 18:49:06 36° 248° (WSW) 1,224 ? 35.8°
Drops below altitude 10° 18:54:04 10° 183° (S) 2,389 ? 35.4°
Sets 18:56:44 0° 175° (S) 3,346 ? 35.2°
